IU1FIL-3 Weather Reports


time (UTC)temp
C
wind
direction
speed
KPH
gust
KPH
rain 1hr
cm
rain 24hr
cm
rain mn
cm
humidity
%
barometer
mb
20260508013428 11 0.0 0.0 0.00 0.00 0.00 10 1016.0
20260508012426 11 0.0 0.0 0.00 0.00 0.00 10 1016.0
20260508011424 11 0.0 0.0 0.00 0.00 0.00 10 1016.1
20260508010421 11 0.0 0.0 0.00 0.00 0.00 10 1016.2
20260508005419 11 0.0 0.0 0.00 0.00 0.00 10 1016.3
20260508004417 11 0.0 0.0 0.00 0.00 0.00 10 1016.5
20260508003415 11 0.0 0.0 0.00 0.00 0.00 10 1016.4
20260508002413 11 0.0 0.0 0.00 0.00 0.00 10 1016.6
20260508001412 11 0.0 0.0 0.00 0.00 0.00 10 1016.7
20260508000412 11 0.0 0.0 0.00 0.00 0.00 10 1016.8
20260507235408 11 0.0 0.0 0.00 0.00 0.00 10 1016.9
20260507234406 11 0.0 0.0 0.00 0.00 0.00 10 1016.9
20260507233403 11 0.0 0.0 0.00 0.00 0.00 10 1016.8
20260507232402 11 0.0 0.0 0.00 0.00 0.00 10 1016.9
20260507231359 11 0.0 0.0 0.00 0.00 0.00 10 1017.1
20260507230357 11 0.0 0.0 0.00 0.00 0.00 10 1017.1
20260507225355 11 0.0 0.0 0.00 0.00 0.00 10 1017.2
20260507224353 11 0.0 0.0 0.00 0.00 0.00 10 1017.2
20260507223352 11 0.0 0.0 0.00 0.00 0.00 10 1017.3
20260507222350 12 0.0 0.0 0.00 0.00 0.00 10 1017.3
20260507221348 12 0.0 0.0 0.00 0.00 0.00 10 1017.3
20260507220346 11 0.0 0.0 0.00 0.00 0.00 10 1017.2
20260507215817 12 0.0 0.0 0.00 0.00 0.00 10 1017.2
20260507214816 12 0.0 0.0 0.00 0.00 0.00 10 1017.1
20260507213814 12 0.0 0.0 0.00 0.00 0.00 10 1017.1
20260507212812 12 0.0 0.0 0.00 0.00 0.00 10 1016.9
20260507211810 12 0.0 0.0 0.00 0.00 0.00 10 1016.8
20260507210807 12 0.0 0.0 0.00 0.00 0.00 10 1016.8
20260507205806 12 0.0 0.0 0.00 0.00 0.00 10 1016.7
20260507204805 12 0.0 0.0 0.00 0.00 0.00 10 1016.7
20260507203803 12 0.0 0.0 0.00 0.00 0.00 10 1016.7
20260507202801 12 0.0 0.0 0.00 0.00 0.00 10 1016.8
20260507201759 12 0.0 0.0 0.00 0.00 0.00 10 1016.8
20260507200757 12 0.0 0.0 0.00 0.00 0.00 10 1016.6
20260507195756 12 0.0 0.0 0.00 0.00 0.00 10 1016.7
20260507194754 12 0.0 0.0 0.00 0.00 0.00 10 1016.6
20260507193753 13 0.0 0.0 0.00 0.00 0.00 10 1016.4
20260507192751 13 0.0 0.0 0.00 0.00 0.00 10 1016.3
20260507191749 13 0.0 0.0 0.00 0.00 0.00 10 1016.0
20260507190747 13 0.0 0.0 0.00 0.00 0.00 10 1016.1
20260507185745 13 0.0 0.0 0.00 0.00 0.00 10 1015.8
20260507184743 14 0.0 0.0 0.00 0.00 0.00 10 1015.7
20260507183740 14 0.0 0.0 0.00 0.00 0.00 10 1015.6
20260507182739 15 0.0 0.0 0.00 0.00 0.00 10 1015.6
20260507181738 15 0.0 0.0 0.00 0.00 0.00 10 1015.4
20260507180736 16 0.0 0.0 0.00 0.00 0.00 10 1015.2
20260507175734 16 0.0 0.0 0.00 0.00 0.00 10 1015.2
20260507174733 17 0.0 0.0 0.00 0.00 0.00 10 1014.7
20260507173731 18 0.0 0.0 0.00 0.00 0.00 10 1014.6
20260507172729 21 0.0 0.0 0.00 0.00 0.00 10 1014.2
20260507171727 18 0.0 0.0 0.00 0.00 0.00 10 1014.7
20260507170725 16 0.0 0.0 0.00 0.00 0.00 10 1015.4
20260507165723 16 0.0 0.0 0.00 0.00 0.00 10 1015.2
20260507164721 16 0.0 0.0 0.00 0.00 0.00 10 1015.1
20260507163719 21 0.0 0.0 0.00 0.00 0.00 10 1014.2
20260507162717 18 0.0 0.0 0.00 0.00 0.00 10 1014.7
20260507161716 17 0.0 0.0 0.00 0.00 0.00 10 1014.8
20260507160714 17 0.0 0.0 0.00 0.00 0.00 10 1014.9
20260507155712 16 0.0 0.0 0.00 0.00 0.00 10 1014.9
20260507154710 17 0.0 0.0 0.00 0.00 0.00 10 1014.9
20260507153709 17 0.0 0.0 0.00 0.00 0.00 10 1014.7
20260507152707 17 0.0 0.0 0.00 0.00 0.00 10 1014.6
20260507151706 19 0.0 0.0 0.00 0.00 0.00 10 1014.1
20260507150703 18 0.0 0.0 0.00 0.00 0.00 10 1014.4
20260507145701 17 0.0 0.0 0.00 0.00 0.00 10 1014.8
20260507144659 17 0.0 0.0 0.00 0.00 0.00 10 1014.8
20260507143657 16 0.0 0.0 0.00 0.00 0.00 10 1014.9
20260507142655 17 0.0 0.0 0.00 0.00 0.00 10 1015.0
20260507141653 17 0.0 0.0 0.00 0.00 0.00 10 1015.0
20260507140650 18 0.0 0.0 0.00 0.00 0.00 10 1014.7
20260507135649 18 0.0 0.0 0.00 0.00 0.00 10 1014.7
20260507134647 17 0.0 0.0 0.00 0.00 0.00 10 1015.0
20260507133645 16 0.0 0.0 0.00 0.00 0.00 10 1015.4
20260507132643 15 0.0 0.0 0.00 0.00 0.00 10 1015.7
20260507131643 16 0.0 0.0 0.00 0.00 0.00 10 1015.6
20260507130639 16 0.0 0.0 0.00 0.00 0.00 10 1015.5
20260507125637 16 0.0 0.0 0.00 0.00 0.00 10 1015.4
20260507124634 16 0.0 0.0 0.00 0.00 0.00 10 1015.2
20260507123632 16 0.0 0.0 0.00 0.00 0.00 10 1015.3
20260507122630 17 0.0 0.0 0.00 0.00 0.00 10 1015.0
20260507121628 17 0.0 0.0 0.00 0.00 0.00 10 1015.0
20260507120626 17 0.0 0.0 0.00 0.00 0.00 10 1015.0
20260507115624 16 0.0 0.0 0.00 0.00 0.00 10 1015.1
20260507114622 17 0.0 0.0 0.00 0.00 0.00 10 1014.9
20260507113621 17 0.0 0.0 0.00 0.00 0.00 10 1014.9
20260507112619 17 0.0 0.0 0.00 0.00 0.00 10 1015.0
20260507111616 18 0.0 0.0 0.00 0.00 0.00 10 1014.8
20260507110614 18 0.0 0.0 0.00 0.00 0.00 10 1014.8
20260507105613 18 0.0 0.0 0.00 0.00 0.00 10 1014.8
20260507104610 18 0.0 0.0 0.00 0.00 0.00 10 1014.8
20260507103608 17 0.0 0.0 0.00 0.00 0.00 10 1015.0
20260507102606 18 0.0 0.0 0.00 0.00 0.00 10 1014.9
20260507101604 18 0.0 0.0 0.00 0.00 0.00 10 1015.0
20260507100603 17 0.0 0.0 0.00 0.00 0.00 10 1015.1
20260507095602 18 0.0 0.0 0.00 0.00 0.00 10 1015.1
20260507094600 17 0.0 0.0 0.00 0.00 0.00 10 1015.0
20260507093558 17 0.0 0.0 0.00 0.00 0.00 10 1015.0
20260507092556 17 0.0 0.0 0.00 0.00 0.00 10 1015.0
20260507091554 17 0.0 0.0 0.00 0.00 0.00 10 1014.8
20260507090553 17 0.0 0.0 0.00 0.00 0.00 10 1014.9
20260507085551 16 0.0 0.0 0.00 0.00 0.00 10 1014.9
20260507084549 16 0.0 0.0 0.00 0.00 0.00 10 1014.8
20260507083547 16 0.0 0.0 0.00 0.00 0.00 10 1014.7
20260507082546 16 0.0 0.0 0.00 0.00 0.00 10 1014.7
20260507081543 16 0.0 0.0 0.00 0.00 0.00 10 1014.6
20260507080541 16 0.0 0.0 0.00 0.00 0.00 10 1014.7
20260507075539 15 0.0 0.0 0.00 0.00 0.00 10 1014.9
20260507074537 15 0.0 0.0 0.00 0.00 0.00 10 1015.0
20260507073535 13 0.0 0.0 0.00 0.00 0.00 10 1015.2
20260507072534 14 0.0 0.0 0.00 0.00 0.00 10 1015.2
20260507071532 13 0.0 0.0 0.00 0.00 0.00 10 1015.1
20260507070530 13 0.0 0.0 0.00 0.00 0.00 10 1015.2
20260507065528 12 0.0 0.0 0.00 0.00 0.00 10 1015.2
20260507064525 12 0.0 0.0 0.00 0.00 0.00 10 1015.1
20260507063523 12 0.0 0.0 0.00 0.00 0.00 10 1015.0
20260507062521 12 0.0 0.0 0.00 0.00 0.00 10 1015.0
20260507061519 12 0.0 0.0 0.00 0.00 0.00 10 1014.9
20260507060517 12 0.0 0.0 0.00 0.00 0.00 10 1014.9
20260507055517 11 0.0 0.0 0.00 0.00 0.00 10 1014.9
20260507054514 11 0.0 0.0 0.00 0.00 0.00 10 1014.8
20260507053512 11 0.0 0.0 0.00 0.00 0.00 10 1014.6
20260507052510 11 0.0 0.0 0.00 0.00 0.00 10 1014.6
20260507051508 11 0.0 0.0 0.00 0.00 0.00 10 1014.5
20260507050506 11 0.0 0.0 0.00 0.00 0.00 10 1014.3
20260507045505 11 0.0 0.0 0.00 0.00 0.00 10 1014.3
20260507044504 11 0.0 0.0 0.00 0.00 0.00 10 1014.3
20260507043501 11 0.0 0.0 0.00 0.00 0.00 10 1014.3
20260507042459 11 0.0 0.0 0.00 0.00 0.00 10 1014.1
20260507041457 11 0.0 0.0 0.00 0.00 0.00 10 1014.2
20260507040455 11 0.0 0.0 0.00 0.00 0.00 10 1014.2
20260507035454 11 0.0 0.0 0.00 0.00 0.00 10 1014.1
20260507034452 11 0.0 0.0 0.00 0.00 0.00 10 1013.9
20260507033451 11 0.0 0.0 0.00 0.00 0.00 10 1013.9
20260507032449 11 0.0 0.0 0.00 0.00 0.00 10 1013.8
20260507031448 11 0.0 0.0 0.00 0.00 0.00 10 1013.9
20260507030445 10 0.0 0.0 0.00 0.00 0.00 10 1013.8
20260507025443 11 0.0 0.0 0.00 0.00 0.00 10 1013.8
20260507024442 11 0.0 0.0 0.00 0.00 0.00 10 1013.7
20260507023440 11 0.0 0.0 0.00 0.00 0.00 10 1013.7
20260507022439 11 0.0 0.0 0.00 0.00 0.00 10 1013.6
20260507021437 11 0.0 0.0 0.00 0.00 0.00 10 1013.5
20260507020435 11 0.0 0.0 0.00 0.00 0.00 10 1013.5
20260507015434 11 0.0 0.0 0.00 0.00 0.00 10 1013.5
20260507014432 11 0.0 0.0 0.00 0.00 0.00 10 1013.4